Torna al catalogo

TITAN 3C TRANSTAGE DEB

LostMEO
NORAD 59982·DEBRIS·🇺🇸 United States

Lanciato Sep 26, 1968 da Cape Canaveral Space Force Station

Loading…

Prossimi Passaggi (prossime 24 ore)

TLE

ObsoletoSource: Space-Track

Epoca: Jul 8, 2026, 00:12 UTC

1 59982U 68081AQ  26189.00861568 -.00000186  00000-0  00000-0 0  9992
2 59982   2.1107  31.7917 0696849 254.8883  97.2223  0.99569061 19318

Traccia TITAN 3C TRANSTAGE DEB in tempo reale con AllMySat

Download on the App Store